COSMOS 1275 DEB, 17025

Orbit data source: Space-Track

COSMOS 1275 DEB, 17025 is space debris in LEO originally from a launch on Thu, 04 Jun 1981 UTC launched from the Plesetsk Missile And Space Complex (PKMTR). Debris objects in space refer to the collection of defunct objects orbiting the Earth. Examples of debris include non-operational satellites, rocket bodies, and fragments generated from explosions, collisions, or faulty payload assembly.

Loading next visibility...
Identifier
17025, 1981-053KF
Orbit
LEO
Country
Flag of CISCIS
Related business
Manufacturer
Unknown
Mission
Spacecraft
Bus & Motor
Unknown
Mass
Unknown
Launch date (UTC)
1981-06-04 (45 years ago)
Launch vehicle
Unknown
Launch site
Plesetsk Missile And Space Complex (PKMTR)
Object type
Payload
Rocket body
Debris
Shape & HBR
Unknown shape, 0.1 m
Radar Cross Section
Small (<0.1 m²)

Expand to show TLE details & history
Last TLE update: 2 days ago

TLE from 2 days ago
0 COSMOS 1275 DEB
1 17025U 81053KF  26144.32779355  .00000692  00000-0  61274-3 0  9990
2 17025  82.8247  90.4263 0073145 115.8594  37.2737 13.82442654 60975
Epoch: 2026-05-24T07:52Z
TLE epoch observation values (Epoch: 2026-05-24T07:52:01.362Z)
Latitude
26.16743°
Longitude
-93.03871°
Altitude
915.868 km
Speed
7.418 km/s
True Right ascension
17h 47m 35s
True Declination
26° 02' 04"
Sunlit
Object was in full shadow at epoch
Visualization orbit readout
Latitude
Unknown
Longitude
Unknown
Altitude
Unknown
Speed
Unknown
Apparent Right ascension
Unknown
Apparent Declination
Unknown
Sunlit
N/A
Visualization observer readout
Local Sidereal Time
20:14:36
Azimuth
Unknown
Elevation
Unknown
Doppler factor
Unknown
Orbital elements
Apogee altitude
1,005.998 km
Perigee altitude
898.759 km
Semi-major axis
7,330.516 km
Eccentricity
0.00731
Inclination
82.8247°
RAAN
90.4263°
Arg. of periapsis
115.8594°
True anomaly
37.78503°
Mean anomaly
37.2737°
Eccentric anomaly
37.52899°
Mean motion
3.45813 °/min
Orbital period
104.1 mins
BSTAR
0.00061274
Loading maneuver chart data...
Computing Atmospheric mass density...
Loading historical data...
Loading historical data...
Loading historical data...
Loading historical data...
Loading historical data...
Loading historical data...
Loading historical data...

Documentation

Showing up to 5 results
|